Location: Byszew
(52.1813°N, 19.2693°E)
Time: 21:07:35
(UTC+00:00)

USA 308 - Pass Details

Date: 03 March 2021
Orbit: 568 x 576 km, 54.0° (Epoch: 16 April)

Event Time Altitude Azimuth Distance (km) Brightness Sun altitude
Rises 18:28:36 0° 278° (W) 2,778 8.0 -19.4°
Reaches altitude 10° 18:30:53 10° 281° (W) 1,878 6.8 -19.7°
Maximum altitude 18:35:08 69° 5° (N) 614 3.0 -20.4°
Enters shadow 18:36:00 52° 65° (ENE) 712 3.0 -20.5°
